Wind_Speed
26 27 27 28 28 28 29 29 29 29 29 28 27 26 24 23 22 22 23 23 23 23 22 20 19 19 20 20 21 22 22 22 22 21 20 20 21 21 21 21 20 19 20 20 20 20 19 19 19 19 17 14 13 14 13 11 10 11 12 13 13 13 14 12 10 10 12 12 12 13 15 15 15 15 16 15 15 16 16 16 17 17 18 18 18
26 26 26 27 27 27 28 28 28 28 29 29 27 26 25 24 23 24 24 24 24 24 22 21 20 20 19 20 21 22 22 22 22 22 21 21 22 22 22 22 21 20 19 19 20 19 19 19 19 19 19 16 14 14 13 13 12 12 13 13 14 15 16 16 14 12 12 13 13 14 15 16 17 17 18 18 17 18 18 19 19 20 20 21 21
26 26 26 25 26 26 26 27 27 27 28 28 27 26 25 24 24 25 25 25 25 25 23 22 21 20 20 20 21 21 21 22 22 22 21 21 21 21 21 21 20 20 20 19 20 20 19 19 19 19 20 18 16 15 14 14 14 13 14 15 16 17 18 18 17 15 14 14 14 15 16 17 17 18 19 19 19 19 19 20 21 21 22 23 24
26 26 26 25 25 25 25 25 26 26 27 27 26 25 25 25 25 26 26 26 26 25 24 23 22 21 20 20 20 20 20 21 21 21 21 21 21 21 22 21 20 20 20 20 20 20 20 20 19 20 20 18 17 17 16 16 15 15 15 16 17 18 19 19 19 18 18 16 16 17 17 18 18 19 20 20 20 21 21 21 22 22 23 25 25
27 27 26 26 25 24 25 25 25 25 26 25 25 25 25 25 26 27 27 27 26 25 24 23 22 21 20 19 20 20 20 21 21 21 21 21 21 22 22 21 20 20 20 20 20 20 21 21 21 21 20 18 17 18 18 18 18 17 17 17 17 19 20 21 21 21 20 19 18 19 19 19 18 19 20 21 20 21 22 22 23 23 24 25 25
29 29 28 27 26 25 25 25 25 25 25 25 24 24 25 25 26 27 27 27 27 26 25 24 22 21 19 19 19 19 20 20 20 20 20 20 21 21 20 20 19 19 20 21 21 20 22 22 22 23 21 18 17 18 18 19 20 20 19 18 19 20 21 22 22 23 22 21 20 20 21 20 20 20 21 21 20 21 22 23 23 24 25 25 25
31 31 30 29 28 27 27 26 26 26 25 24 24 24 25 25 27 27 28 28 27 26 26 24 23 21 20 20 19 19 19 19 19 19 18 19 20 20 20 20 19 19 21 22 22 22 22 23 23 23 22 20 18 18 19 20 21 21 21 21 22 22 23 23 23 24 23 22 22 21 22 22 21 20 19 19 20 20 23 25 24 24 25 26 27
32 33 32 31 30 29 28 28 27 26 25 24 24 24 25 26 26 27 28 28 28 27 26 25 24 23 22 21 20 20 20 20 20 19 18 19 20 20 20 20 20 20 22 24 25 24 24 25 24 23 22 20 19 20 21 21 22 23 23 23 24 24 24 25 25 26 25 24 23 22 22 21 20 19 18 19 21 22 26 29 28 26 26 27 28
34 34 34 33 31 31 30 30 29 27 26 25 25 25 26 26 26 27 28 28 28 28 27 26 26 25 24 22 21 21 22 21 21 20 19 20 21 21 22 21 21 21 24 27 27 27 26 26 26 25 23 20 21 22 23 23 23 24 25 26 26 26 26 27 27 27 27 26 25 23 23 21 19 18 18 22 26 27 29 32 30 28 28 29 29
34 35 35 33 32 33 32 31 30 28 27 27 27 27 27 27 28 28 29 29 29 28 28 28 27 27 25 24 23 24 23 23 22 21 21 21 21 22 23 23 22 22 24 28 30 29 29 28 29 29 26 22 22 24 24 24 24 25 27 29 28 27 27 28 28 27 26 27 25 24 24 22 19 20 25 29 32 31 30 31 31 30 31 32 30
35 35 35 34 34 34 34 33 32 30 29 29 29 29 28 28 29 29 30 30 29 29 29 30 29 28 26 25 25 25 24 23 23 22 22 22 21 22 24 24 23 22 23 28 30 28 28 30 31 31 29 26 24 25 25 25 26 26 28 29 29 28 27 28 27 27 27 27 26 27 28 25 23 27 32 32 31 29 28 31 32 33 34 35 34
35 35 34 34 34 35 35 35 34 32 31 31 31 30 30 30 30 31 31 31 30 31 31 31 30 28 28 27 26 25 24 23 23 23 23 23 22 23 26 26 24 20 21 28 29 25 25 29 31 32 31 28 26 26 26 27 28 27 27 28 27 28 29 29 28 28 28 28 29 30 29 28 29 31 30 27 26 27 30 32 34 35 36 36 36
36 35 35 36 35 35 35 36 36 35 33 33 33 32 32 32 32 32 32 31 31 31 31 31 30 29 29 28 26 25 24 24 24 23 24 25 24 24 27 28 26 22 23 27 27 24 24 27 30 31 30 29 28 27 27 28 28 28 27 27 26 26 28 29 28 28 28 29 29 28 27 29 31 29 26 26 28 30 33 35 36 37 37 36 36
36 35 36 37 36 36 36 36 36 36 36 35 35 34 34 33 33 33 33 32 32 32 32 32 31 30 29 28 26 25 24 24 25 24 25 27 26 25 26 28 27 25 26 27 26 24 25 26 28 29 29 29 30 28 27 27 28 28 28 26 24 24 26 29 28 27 28 29 27 25 26 29 30 27 26 29 31 33 35 37 38 38 38 37 36
33 34 35 36 37 37 37 37 37 37 38 37 37 37 36 35 35 35 34 34 33 32 32 31 30 30 29 27 26 26 25 25 25 25 26 28 28 27 26 25 25 24 24 25 24 24 25 25 26 27 27 28 29 28 27 27 28 29 27 26 25 24 25 27 28 28 28 28 27 26 26 27 28 28 29 31 33 35 38 40 40 40 39 38 36
31 32 33 34 36 37 37 37 38 38 39 40 39 39 39 38 37 36 36 35 34 34 33 32 31 31 29 28 28 27 26 26 26 26 27 30 31 29 24 21 21 23 23 23 23 23 24 25 25 25 26 27 27 27 28 28 29 29 27 25 24 24 24 26 28 29 28 27 27 27 27 27 29 30 30 32 34 37 40 42 42 41 40 39 36
32 33 34 34 35 36 36 37 37 37 39 41 40 40 41 40 39 38 37 37 36 35 34 33 32 31 30 30 29 28 27 27 26 27 29 31 32 30 25 21 18 19 22 23 24 24 24 24 23 23 24 25 25 26 27 28 28 27 26 25 25 24 24 25 26 27 28 28 28 27 27 29 30 31 31 33 36 39 42 44 43 41 40 37 34
32 33 33 33 34 34 35 36 36 35 36 39 41 42 43 43 42 40 40 39 37 36 35 34 33 31 31 31 30 29 29 28 28 28 29 32 33 27 23 22 20 18 19 20 21 23 22 21 21 22 22 23 24 25 26 25 24 24 25 27 27 26 25 24 25 27 28 28 27 27 29 30 31 31 32 35 38 41 44 45 44 41 38 35 33
33 33 33 32 31 30 31 32 33 32 33 37 41 44 45 45 44 43 42 40 39 37 36 35 34 33 32 32 30 30 31 29 29 29 29 33 33 27 22 22 23 24 24 21 21 22 20 19 21 21 21 22 22 22 22 21 21 23 25 28 28 26 25 25 26 27 27 27 27 28 30 31 31 32 33 36 39 42 45 44 41 38 36 34 33
34 34 34 32 30 28 27 26 26 25 26 29 36 42 45 46 46 46 45 43 41 40 38 37 36 35 34 33 31 32 33 31 30 28 28 34 35 29 24 23 24 28 28 24 23 21 18 18 20 20 20 22 21 20 19 19 21 23 25 27 27 25 24 25 26 26 27 27 27 29 30 30 31 32 34 37 41 43 44 41 38 36 35 34 33
34 34 32 30 29 27 25 24 25 24 23 23 28 35 41 45 46 47 47 46 44 44 42 40 38 37 36 34 33 34 34 31 28 28 29 33 36 32 25 22 25 28 27 24 22 20 17 18 19 20 20 22 22 22 21 21 23 24 26 26 24 22 22 23 24 25 26 27 27 28 29 30 31 33 36 39 41 42 40 37 35 34 34 34 34
34 34 32 30 29 28 28 28 28 28 28 27 26 28 34 41 45 46 46 47 47 46 44 43 42 40 39 37 36 36 35 31 28 28 30 32 34 34 29 25 27 29 27 24 22 19 18 19 20 20 21 21 22 23 23 23 24 24 23 22 21 20 20 21 23 24 25 26 26 28 29 30 32 35 37 39 40 38 36 34 33 33 33 34 35
36 36 36 35 35 34 33 31 31 31 33 33 31 29 30 36 42 46 47 46 46 46 45 45 45 44 42 40 39 37 34 30 28 29 31 32 33 34 32 29 30 30 27 24 22 20 20 20 20 21 21 21 22 22 22 22 22 21 19 19 19 19 20 20 22 23 24 25 27 28 30 32 34 36 38 39 38 36 35 34 33 33 33 34 34
40 40 41 42 41 40 38 36 35 34 34 35 36 35 33 33 37 44 48 47 44 43 44 44 45 45 43 41 39 37 32 29 29 30 31 32 32 33 33 32 32 30 27 24 22 21 21 20 19 20 21 22 22 20 20 20 19 18 18 19 19 19 19 20 21 22 24 26 28 29 31 33 35 37 38 38 37 36 35 34 33 34 34 34 34
44 45 47 47 45 45 44 42 40 39 38 39 40 40 39 36 35 39 46 49 46 42 42 43 43 43 42 40 38 35 31 30 30 31 31 31 32 33 33 33 33 30 26 24 23 22 20 19 19 19 20 21 20 18 18 19 19 19 19 18 18 18 19 20 22 23 25 27 29 30 31 34 36 38 38 37 37 36 35 35 34 34 34 33 32
46 48 49 50 48 47 47 46 45 43 42 44 46 47 47 42 37 37 43 49 50 46 43 42 41 40 39 39 37 33 31 31 31 31 31 31 32 32 33 33 33 30 26 24 23 21 20 19 18 19 19 19 18 18 19 19 19 18 18 17 17 18 19 21 22 24 26 28 29 30 32 35 37 38 37 36 36 35 35 34 33 32 31 31 30
45 47 49 50 49 50 50 50 50 49 47 47 49 52 55 51 43 39 42 47 51 50 46 42 40 39 38 37 35 32 32 33 32 31 31 32 32 33 33 33 31 28 25 23 22 20 19 18 18 19 19 17 17 17 18 18 18 17 16 17 18 19 20 21 23 25 27 28 29 31 33 36 37 37 35 34 33 33 33 32 31 30 29 28 28
45 47 48 48 50 52 53 53 53 53 54 53 52 53 57 57 51 44 42 46 51 52 49 44 40 38 37 35 33 33 34 35 33 31 31 32 33 33 33 31 29 27 25 23 21 20 19 18 18 19 18 17 17 17 17 16 16 15 16 17 18 20 21 22 24 26 26 27 29 32 34 35 35 34 32 31 31 31 31 30 29 28 27 27 27
49 49 49 49 50 52 53 54 54 54 56 58 57 56 56 58 55 49 44 46 49 49 46 42 38 37 35 33 33 34 35 34 33 31 31 33 34 33 31 30 28 27 25 23 21 20 18 18 18 19 19 18 16 16 15 15 15 15 16 18 19 20 22 23 24 25 26 28 30 32 33 32 31 30 29 29 28 28 29 29 28 27 27 27 27
52 52 53 54 54 54 55 55 55 55 55 55 57 57 56 56 57 53 47 47 48 45 41 38 36 35 35 35 35 36 35 34 33 32 33 35 34 32 31 30 29 28 25 23 21 19 18 18 19 20 19 17 16 15 15 15 15 16 17 19 20 22 23 23 24 25 26 28 30 31 30 29 28 27 26 26 26 26 26 27 27 27 27 27 27
54 54 56 57 57 58 58 59 59 59 59 57 57 57 56 56 59 56 48 45 45 42 41 41 37 34 35 37 38 37 35 34 34 33 34 34 33 32 32 31 29 26 24 22 20 18 18 18 19 20 20 17 16 16 16 16 16 17 18 20 22 23 24 24 24 25 27 28 28 28 27 26 25 25 24 24 24 24 25 26 26 26 26 26 27
55 57 58 58 57 56 57 58 58 58 59 59 60 61 60 59 61 58 49 44 43 42 43 42 38 35 37 39 38 36 35 35 34 32 31 32 31 31 31 29 26 25 23 21 19 18 18 18 20 21 20 19 17 17 17 17 18 19 21 22 24 24 24 24 25 26 27 27 26 26 25 24 24 23 23 22 23 23 24 25 25 25 24 24 25
48 54 58 61 60 56 54 56 57 57 58 59 61 65 66 65 65 61 53 48 46 43 41 41 40 39 40 39 36 34 34 34 33 30 29 30 30 30 29 27 26 24 22 20 19 18 18 19 21 22 22 20 19 18 18 19 20 21 23 24 24 24 24 25 26 26 26 25 25 24 23 22 22 22 21 21 22 23 24 25 25 24 24 24 24
38 43 47 51 53 51 50 51 51 51 55 58 59 61 61 60 59 57 55 54 51 44 40 40 40 39 37 36 35 34 33 33 31 29 28 29 30 29 28 26 25 23 21 19 18 18 19 21 23 24 23 21 21 21 20 21 22 23 24 24 24 24 25 26 26 25 24 23 23 22 21 20 20 20 20 21 22 23 24 25 24 23 24 24 24
27 29 28 31 34 34 35 36 34 30 34 42 47 48 49 48 47 46 47 47 45 39 36 36 37 36 34 32 32 32 31 30 29 28 28 29 29 27 26 24 22 20 19 19 18 19 21 22 24 24 24 23 22 22 22 23 24 25 25 25 25 25 25 25 24 23 23 23 22 20 19 19 19 19 20 21 22 24 24 24 24 23 23 23 23
12 11 7 4 7 6 7 12 13 10 11 18 23 26 27 30 31 30 31 32 33 32 32 33 35 36 34 31 29 29 29 29 28 27 27 26 25 24 23 21 20 19 18 19 19 19 21 22 23 24 23 23 23 23 24 25 26 25 25 25 25 25 24 24 23 23 23 22 20 19 18 18 18 19 20 22 23 24 24 23 23 23 23 22 22
5 4 8 11 12 12 12 11 11 12 12 13 13 15 16 18 19 21 23 25 27 29 30 31 32 32 31 29 27 27 27 26 25 24 24 23 23 23 22 20 19 19 19 19 19 20 21 21 22 22 22 23 24 24 25 25 25 25 25 25 24 24 23 22 22 22 22 21 19 18 18 18 18 20 21 22 23 23 23 23 22 22 21 21 21
7 7 7 7 8 9 9 10 11 11 11 11 12 13 15 16 17 19 22 24 25 25 26 28 29 28 26 25 24 24 22 22 22 23 22 22 22 22 21 20 19 19 19 20 20 20 20 20 21 21 23 24 24 24 24 25 25 25 25 24 23 23 23 23 23 23 22 21 19 18 18 18 19 20 22 22 23 22 22 22 22 21 20 19 19
6 6 5 5 5 5 5 6 7 8 9 10 11 13 14 16 18 18 19 20 21 22 22 23 23 23 23 23 22 21 21 21 21 21 20 20 21 21 20 20 19 19 19 20 20 20 20 20 20 21 22 23 23 23 24 25 25 25 24 24 24 24 24 24 24 23 22 20 19 18 18 18 19 21 22 22 22 22 22 21 21 19 18 18 18
3 5 6 7 8 8 8 9 9 10 10 10 11 12 13 15 16 17 18 18 18 18 19 19 19 19 19 19 18 18 17 16 16 17 18 19 20 20 19 19 19 19 20 20 20 20 19 19 20 21 22 23 23 23 24 25 25 25 25 24 24 24 23 23 23 23 22 20 19 18 18 18 19 21 21 21 20 20 20 20 19 18 17 17 17
7 8 7 7 7 8 9 9 9 10 10 9 10 11 12 13 14 16 17 17 16 16 17 17 17 17 16 15 15 16 17 17 17 18 19 20 20 20 20 20 20 20 20 20 19 19 18 19 20 22 23 23 23 24 25 26 26 26 25 25 24 23 22 22 22 22 21 20 18 17 17 18 19 20 20 19 19 19 20 19 18 17 17 16 17
12 12 11 9 7 6 6 7 7 8 8 8 9 10 11 11 12 12 12 12 14 15 16 16 15 15 14 14 15 16 17 18 19 20 20 21 20 20 20 20 20 20 20 19 19 19 19 20 22 23 23 23 24 25 27 27 27 26 25 23 22 22 22 22 22 21 20 19 17 17 17 17 18 18 19 19 19 19 19 19 17 17 16 16 16
13 14 14 13 12 10 9 8 8 8 9 9 9 10 10 11 12 12 12 12 12 12 13 13 13 12 12 13 14 16 17 17 18 19 19 20 20 20 20 20 20 20 20 19 20 20 21 22 22 23 23 24 25 27 27 27 25 24 23 22 21 21 21 22 22 21 20 18 17 16 16 17 17 17 18 18 18 19 18 18 17 16 16 15 16
12 13 14 14 15 14 13 11 9 9 10 11 12 12 12 12 12 12 12 11 10 9 8 10 11 12 12 13 15 15 16 16 17 18 19 20 20 20 20 20 20 20 20 21 21 21 22 22 22 23 24 25 26 26 26 25 23 21 21 21 20 20 20 20 21 20 19 18 17 17 17 17 17 17 17 17 18 18 18 17 16 16 15 15 16
12 12 13 14 15 17 17 16 15 15 16 17 17 17 16 16 16 15 13 11 11 11 11 12 12 12 13 15 16 16 17 18 19 20 20 21 20 20 20 20 20 21 21 21 21 21 21 21 22 24 25 26 26 25 25 23 22 20 19 19 19 20 19 19 19 19 18 17 17 17 18 18 17 16 16 16 17 18 18 17 16 15 15 15 15
13 13 13 14 15 15 15 15 14 14 14 13 13 12 13 14 14 13 13 13 13 13 13 13 12 13 14 16 18 18 19 20 20 20 20 20 20 20 20 21 21 22 22 22 21 21 21 22 24 25 26 26 26 25 24 23 21 19 18 19 19 19 19 18 17 17 16 16 17 18 18 18 16 15 15 16 17 17 17 17 16 15 14 14 15
13 12 12 12 11 10 8 8 9 9 10 10 9 9 11 12 14 15 16 15 15 15 14 14 14 15 16 17 18 19 19 19 20 20 20 20 20 21 21 21 22 22 21 21 21 21 22 24 26 27 27 26 26 25 24 23 21 19 19 19 19 18 17 16 16 15 15 16 17 18 18 18 16 14 14 15 16 17 17 17 16 15 14 15 16
15 14 14 13 11 9 8 9 10 10 11 11 12 12 12 13 15 17 17 15 15 15 15 15 15 16 17 17 18 19 19 19 19 20 20 20 21 20 20 21 21 20 20 21 22 23 25 27 28 28 27 26 26 25 24 23 22 21 19 18 17 17 16 15 14 14 15 16 17 18 18 18 17 15 14 15 15 16 17 17 16 15 15 15 16
15 14 13 11 11 11 11 12 13 13 12 11 11 12 12 13 16 19 19 17 16 16 16 17 17 17 17 18 18 18 18 18 19 19 20 20 20 20 20 20 20 21 22 23 23 25 26 27 27 26 25 25 25 24 23 22 21 20 19 18 17 17 17 15 14 14 14 15 15 16 17 17 17 16 15 15 15 16 16 17 16 16 16 16 17
13 13 12 11 11 12 13 14 15 14 13 11 10 11 14 16 18 20 21 20 20 19 19 20 21 20 18 17 17 16 17 17 17 18 19 19 19 20 20 21 22 22 23 23 24 25 26 26 25 24 24 23 22 22 21 21 20 20 20 19 19 18 17 16 14 14 14 14 15 16 16 17 17 17 16 16 16 16 16 16 16 16 16 17 17
14 15 15 15 15 15 16 16 16 16 14 12 11 12 14 15 16 18 18 19 21 21 22 22 23 21 19 17 16 16 17 17 17 17 18 18 19 20 20 21 21 22 22 22 23 24 25 24 22 21 21 20 19 19 19 19 19 20 20 21 21 20 18 16 15 14 15 15 16 16 16 16 16 17 17 17 16 16 16 16 17 17 17 17 17
Wind_Direction
229 230 231 233 235 235 235 235 235 236 235 233 231 229 226 222 217 214 213 211 211 214 216 217 218 220 223 227 232 237 242 248 255 262 267 271 274 276 280 285 289 292 295 301 307 311 316 318 316 311 310 316 319 314 301 289 283 282 281 280 278 277 276 271 264 263 269 274 277 281 286 289 291 292 292 292 294 296 299 302 303 303 303 300 297
228 228 229 230 232 233 234 235 236 236 235 234 230 227 224 219 215 214 212 210 211 214 215 217 219 221 223 227 232 237 242 247 253 260 265 270 273 276 280 283 285 286 289 295 300 303 307 312 312 307 304 305 309 310 301 288 280 276 275 274 272 271 271 270 268 265 265 268 272 275 277 281 286 289 290 291 293 296 298 300 301 300 300 298 297
226 228 229 230 231 231 232 232 233 234 234 233 230 226 222 218 214 213 211 210 211 213 215 217 219 221 223 227 232 237 241 246 251 258 263 269 274 276 279 281 282 284 287 290 293 296 298 303 307 304 300 298 300 304 300 287 278 273 271 269 269 270 271 271 272 272 269 268 271 273 274 277 280 283 284 286 289 290 291 293 295 296 296 295 294
224 226 227 228 229 229 230 229 230 231 231 231 229 226 222 218 215 212 211 212 212 213 216 218 219 221 223 227 232 237 242 247 251 257 263 268 272 275 277 278 279 282 286 287 287 288 290 295 300 301 296 291 292 297 298 288 278 270 268 268 269 271 272 271 272 272 273 272 272 272 273 274 276 277 278 280 281 282 283 285 288 290 290 290 290
222 224 225 226 226 226 227 228 228 230 231 231 229 225 223 219 216 214 213 213 214 215 217 219 220 222 224 229 234 239 243 248 253 258 263 267 270 272 274 276 277 279 282 285 286 284 284 289 294 296 294 286 282 288 292 287 278 272 268 269 269 270 270 271 271 272 275 276 275 275 275 274 274 276 277 279 279 281 283 285 287 288 288 288 288
221 223 224 225 225 224 225 226 227 229 230 231 229 226 223 220 218 216 215 215 216 217 219 221 222 223 226 230 235 241 246 249 253 257 260 264 265 267 271 275 276 279 283 286 286 281 280 285 290 293 293 284 275 279 285 284 279 274 271 269 268 269 269 269 271 273 277 280 280 280 280 280 280 282 284 286 288 289 290 290 291 292 293 293 293
222 223 224 224 224 223 223 224 227 229 230 231 231 228 225 222 220 218 216 217 218 219 221 222 224 225 228 232 236 241 246 248 250 253 255 259 263 265 269 272 276 281 284 285 284 282 280 282 285 289 291 283 272 271 277 280 278 275 272 271 270 269 270 270 272 276 279 282 283 282 281 283 286 288 289 293 296 298 298 297 297 299 298 297 298
223 223 225 225 224 222 223 224 227 228 230 232 232 230 228 225 222 220 219 219 220 221 222 223 225 227 228 232 235 239 243 244 245 247 250 256 261 265 268 271 275 278 279 280 280 280 279 278 281 284 285 280 270 266 271 276 277 274 271 270 270 271 272 273 274 278 281 285 288 287 284 284 285 286 288 293 297 299 299 298 298 299 299 298 299
224 225 227 227 226 226 226 227 228 229 229 230 230 230 229 226 224 222 221 221 221 222 223 224 225 227 228 230 233 235 237 238 240 244 249 254 259 265 268 270 271 273 275 278 278 277 276 276 277 280 282 278 267 262 266 273 275 273 268 267 269 272 274 275 277 281 286 292 295 292 287 281 277 278 286 296 300 300 298 296 296 298 299 297 298
225 226 229 231 230 229 229 230 230 229 228 228 229 229 228 226 225 223 223 222 222 223 223 224 225 227 228 229 230 232 233 235 240 245 250 253 257 263 267 269 269 273 279 282 281 280 278 275 274 276 280 279 268 261 263 269 273 273 269 266 268 272 275 277 279 282 287 291 293 293 287 279 275 284 293 298 298 297 297 297 298 300 300 299 299
227 228 231 234 233 233 233 232 231 230 228 228 229 229 227 226 225 224 224 223 223 223 223 224 226 227 228 228 228 230 232 237 243 247 252 254 256 260 265 266 266 272 281 282 281 282 279 275 274 275 277 278 272 262 260 263 269 273 272 269 270 273 275 276 278 280 285 288 291 294 290 283 286 296 298 298 296 295 297 301 303 304 303 302 302
229 230 232 234 234 234 235 234 232 230 228 227 229 228 227 227 226 225 225 223 222 223 224 226 226 227 228 228 227 230 234 240 246 250 254 255 254 257 260 261 261 266 274 274 274 277 275 271 271 272 274 275 273 264 259 260 266 272 273 271 272 275 277 277 278 281 285 290 294 295 289 284 291 298 299 300 301 301 304 306 306 306 305 304 304
230 231 232 234 235 236 237 236 234 232 229 228 228 229 228 228 226 225 225 224 223 224 225 227 227 227 227 228 229 233 238 244 249 254 257 257 255 254 257 260 260 258 259 264 267 268 267 264 265 267 269 272 271 267 262 261 265 270 271 270 274 279 279 278 278 281 285 290 293 291 284 285 293 298 297 300 304 305 307 308 308 307 306 304 303
231 232 232 234 236 237 237 237 236 234 231 229 228 227 228 229 227 226 226 225 225 226 227 228 228 228 229 230 232 236 241 247 252 257 261 261 258 255 255 261 259 249 247 255 260 261 261 260 260 262 264 268 269 268 266 264 265 268 269 269 272 280 281 278 276 278 284 289 290 287 286 290 295 296 295 299 304 306 308 310 310 308 305 303 302
233 233 233 234 235 237 238 239 238 235 232 230 228 227 228 229 229 227 227 228 227 228 229 230 230 231 232 233 236 239 244 250 256 261 265 266 265 260 254 252 249 242 244 253 258 259 260 258 257 258 261 265 267 267 267 265 263 264 265 265 268 276 281 277 274 276 282 286 287 287 291 295 295 294 295 299 303 306 308 311 311 308 305 303 303
237 236 235 235 235 235 237 239 238 236 233 231 230 228 227 229 230 229 228 229 229 230 231 231 232 234 234 236 238 241 246 253 259 264 267 268 270 269 265 256 245 239 244 253 255 255 255 253 250 253 258 262 265 265 266 264 261 261 263 263 265 274 280 276 272 274 278 280 283 287 291 292 292 293 296 299 303 306 309 311 311 308 305 305 305
241 239 237 236 235 236 237 238 238 236 233 233 232 230 228 228 229 230 230 229 230 231 232 232 234 235 236 237 240 244 249 255 261 265 266 266 268 272 281 284 268 242 235 240 243 246 249 249 247 250 256 261 265 266 265 264 262 261 262 261 263 272 278 274 268 269 272 276 281 284 286 288 291 293 296 300 304 307 310 311 310 307 305 305 304
245 244 242 241 239 239 238 239 238 236 234 234 233 232 231 229 229 230 231 231 231 232 233 235 235 236 237 238 241 246 252 256 260 263 263 264 266 271 283 291 287 267 250 247 250 251 252 252 252 255 260 263 264 263 264 265 262 260 258 256 260 270 273 266 260 261 266 273 280 282 284 287 291 293 296 301 305 308 310 310 309 307 306 305 303
245 245 246 246 244 244 245 245 245 242 239 238 235 232 231 231 230 230 231 232 232 233 234 235 236 236 238 239 242 248 252 255 259 261 261 261 265 270 277 281 282 278 274 271 267 263 260 257 259 261 262 262 261 259 259 259 256 253 253 255 262 268 265 255 253 257 264 273 278 280 284 288 290 293 298 303 306 308 309 309 307 307 306 305 304
245 244 245 245 246 248 250 250 251 250 249 246 241 236 233 231 231 231 231 232 233 233 234 235 236 237 238 239 242 247 251 254 257 257 257 260 265 271 273 269 267 270 273 273 272 272 271 268 265 263 261 256 253 251 249 248 247 249 253 259 263 262 253 248 250 256 263 271 276 280 284 287 289 294 300 305 307 308 308 306 305 305 304 304 304
246 245 243 244 247 250 252 254 256 260 263 259 250 242 237 234 232 231 232 232 232 234 234 235 237 238 238 240 242 245 249 254 254 250 251 258 267 275 278 270 267 270 272 273 278 283 282 277 272 268 263 256 248 243 242 243 246 250 256 260 258 250 243 244 250 257 264 271 276 282 286 287 291 297 302 305 306 305 304 302 302 302 302 303 303
247 245 243 245 250 252 254 256 258 261 265 265 261 253 244 237 234 232 233 233 232 233 234 235 237 238 239 240 242 244 249 251 247 245 249 257 267 275 279 276 275 278 279 282 288 290 285 278 274 270 267 260 251 246 242 243 247 251 254 252 246 241 241 247 254 261 267 273 279 284 288 290 294 300 303 305 305 303 301 300 300 301 301 301 302
247 245 244 248 252 252 253 255 257 259 262 265 266 262 249 239 234 232 232 233 232 231 231 233 235 237 238 239 241 244 248 246 239 241 250 258 266 271 273 273 275 279 283 287 289 286 280 277 275 274 270 262 254 248 243 241 242 243 243 242 241 243 248 253 260 265 270 276 283 287 290 293 298 302 304 304 302 300 300 300 301 301 301 301 301
246 242 240 244 248 250 251 252 254 255 257 261 264 262 253 241 234 232 233 234 232 229 229 230 233 235 236 237 239 243 243 238 235 240 250 257 263 267 269 272 275 278 283 285 283 279 277 276 275 274 268 257 250 245 238 234 232 232 236 240 243 248 254 259 264 269 274 281 286 290 292 297 301 302 302 301 300 300 301 303 304 304 304 302 302
246 243 242 243 246 248 248 249 249 251 253 256 259 262 258 247 235 233 235 235 232 228 227 228 231 233 234 235 238 240 236 231 235 243 251 256 260 263 266 270 274 277 280 281 278 275 275 274 271 268 261 252 245 238 230 227 227 230 236 241 247 254 260 265 270 275 280 286 290 292 296 299 300 300 300 300 301 302 303 305 306 305 304 303 303
249 249 248 246 244 243 243 243 243 244 246 248 251 256 259 254 242 234 234 234 232 229 227 227 229 229 230 233 235 234 230 231 238 245 250 255 259 261 264 269 273 277 278 276 274 272 271 269 266 262 256 247 236 228 224 225 228 233 239 246 254 261 267 272 277 281 286 289 292 295 297 299 300 300 301 302 302 303 304 304 304 304 302 302 301
252 252 252 250 245 242 240 240 241 242 242 243 244 249 255 257 249 236 230 230 231 230 228 227 227 227 228 231 231 229 229 234 241 247 251 255 258 260 264 269 272 274 272 268 267 265 263 262 261 258 249 236 225 223 224 227 233 240 248 256 263 269 274 279 283 286 289 292 294 296 298 299 299 301 302 302 302 302 302 302 303 302 302 301 301
255 254 254 254 252 248 243 238 237 238 238 239 240 241 247 252 251 242 231 226 229 230 228 226 225 226 228 228 228 229 232 236 242 249 254 257 259 261 265 268 269 267 264 261 259 257 256 258 259 252 238 224 219 222 226 233 242 251 258 266 272 276 281 285 287 290 292 294 295 296 297 298 299 300 301 301 301 301 302 303 304 304 304 303 303
262 260 257 256 253 251 249 245 241 239 238 239 239 239 241 245 248 246 234 225 225 228 227 225 225 225 225 225 226 230 234 237 242 250 256 258 259 261 263 265 263 260 257 254 252 251 253 257 254 242 228 219 219 224 231 240 250 259 267 274 279 283 287 289 289 290 291 293 295 296 297 298 299 299 299 300 301 302 303 304 305 306 306 306 307
265 263 261 259 256 253 251 249 246 244 243 241 239 240 241 242 245 246 236 225 223 225 224 225 225 220 217 221 227 230 232 236 242 249 254 256 259 261 262 262 261 257 253 250 249 249 253 255 247 232 222 221 224 230 237 246 256 266 275 281 285 286 287 287 287 288 290 293 294 295 296 297 298 297 298 299 300 301 303 305 307 308 309 310 312
265 263 261 259 257 256 253 250 248 247 247 245 243 243 243 241 241 242 237 228 225 223 222 225 225 218 214 221 227 228 231 237 243 248 251 255 259 262 262 262 261 256 251 248 248 249 253 251 239 226 221 226 231 237 245 254 263 272 280 283 284 284 284 284 285 287 291 293 293 295 297 297 297 297 297 298 300 302 305 306 307 308 309 311 313
266 264 261 258 256 255 253 251 249 247 246 244 242 240 240 237 234 234 232 228 225 223 222 222 221 217 217 221 225 228 233 240 245 247 252 256 260 261 261 261 257 251 247 246 247 250 249 242 231 224 224 230 237 244 253 261 267 275 280 281 281 281 282 283 286 288 291 293 295 297 298 296 295 295 297 299 302 305 307 307 307 307 309 311 311
269 267 262 258 256 254 250 248 247 246 245 245 242 239 239 236 229 226 225 223 219 217 214 213 214 218 221 223 225 230 238 243 247 251 255 258 258 258 258 257 252 247 245 245 247 247 242 232 225 225 228 235 243 251 258 265 271 277 280 280 280 281 282 284 287 289 292 295 296 296 294 292 292 294 298 302 305 307 307 307 307 308 311 311 310
278 275 264 252 250 252 250 245 241 237 236 239 240 239 235 228 219 215 216 216 212 207 204 206 212 220 224 226 230 237 244 248 251 255 256 256 256 257 256 252 247 245 244 242 240 237 231 226 225 228 233 240 248 255 262 270 276 279 279 278 279 280 283 286 289 291 293 294 293 290 288 288 291 296 301 305 307 307 308 308 309 310 311 310 311
290 290 275 251 246 253 254 248 242 233 225 226 230 230 225 218 210 206 206 206 203 200 201 207 214 221 227 232 237 241 245 248 250 251 251 251 253 253 250 245 243 243 241 236 233 231 228 227 230 234 239 245 252 260 268 274 276 276 276 277 279 282 286 289 292 293 294 292 289 287 287 290 296 301 304 306 306 307 309 309 309 309 309 310 313
307 308 309 236 216 225 228 228 230 222 204 205 212 214 211 207 204 199 195 195 196 199 203 209 215 222 230 237 241 243 246 248 249 248 246 247 248 245 241 238 238 237 231 227 227 227 228 231 235 239 244 251 258 265 270 272 273 273 275 278 281 284 287 289 290 291 291 290 290 292 295 299 303 304 305 306 307 309 310 309 308 308 309 311 315
58 71 74 80 88 95 102 110 118 124 128 137 152 163 168 173 180 184 187 192 197 202 207 212 217 225 235 242 244 245 246 246 244 243 242 241 239 234 230 229 229 226 224 224 225 226 229 234 238 244 251 257 262 266 269 270 271 273 275 278 282 284 286 287 288 290 291 293 296 299 301 303 305 304 304 307 309 310 309 308 307 308 310 313 317
105 109 98 89 94 102 104 103 111 123 132 139 150 162 172 181 190 196 201 205 208 212 217 222 224 228 234 237 237 237 240 242 244 245 245 239 232 226 224 224 223 222 222 224 226 228 233 238 245 251 257 261 264 267 268 270 272 274 277 281 285 287 288 290 291 293 295 297 299 301 301 302 303 303 305 309 310 309 308 307 307 309 311 314 316
135 138 146 154 157 155 152 153 160 168 173 177 183 189 194 198 202 204 207 211 215 219 222 222 222 224 228 233 236 240 244 247 245 240 233 226 221 219 219 220 220 222 225 229 232 236 241 246 252 256 259 262 264 266 269 271 274 277 281 284 285 286 289 290 292 293 294 295 297 298 298 299 300 302 306 309 310 308 307 306 306 308 311 313 315
194 198 198 196 200 206 207 206 206 207 208 207 208 210 213 215 216 216 215 215 218 220 220 220 223 228 233 238 241 240 237 230 223 217 213 212 213 215 215 217 221 226 231 235 239 243 247 251 254 256 259 261 265 267 270 272 274 276 279 281 282 284 286 287 288 289 290 290 291 292 293 295 299 302 306 308 307 305 304 304 305 308 310 312 315
263 256 250 239 227 219 216 214 213 212 212 212 213 215 217 219 221 221 219 219 223 228 229 230 232 233 233 232 227 219 209 202 201 204 206 209 211 214 217 222 227 232 236 240 244 246 249 252 254 256 259 262 265 268 269 270 272 274 276 278 279 282 284 285 285 285 285 285 286 288 290 295 299 301 302 303 301 301 302 304 305 307 308 311 315
261 264 266 268 264 247 230 223 220 219 219 220 222 221 217 215 218 224 230 234 237 238 238 239 240 239 236 231 222 213 206 202 203 206 209 211 215 220 225 230 234 238 241 244 246 247 249 251 254 256 260 263 265 266 267 269 271 273 274 276 278 281 283 284 284 284 284 284 285 287 291 294 296 297 298 299 299 300 303 304 305 305 307 311 314
261 261 263 270 277 278 274 266 255 248 248 249 248 244 237 235 238 244 247 248 246 242 239 236 234 230 226 219 213 210 209 209 211 213 216 219 223 228 232 237 240 242 244 246 247 249 250 252 254 257 260 262 264 266 267 268 269 270 272 276 278 280 282 284 284 285 284 284 285 288 290 290 291 293 296 298 299 301 302 302 302 302 305 310 312
266 261 260 262 265 267 270 271 268 265 266 269 268 262 256 251 250 251 251 248 242 233 223 213 207 206 207 207 209 212 216 217 218 219 222 225 230 234 237 240 242 243 245 247 249 250 251 252 255 259 261 262 263 264 265 267 269 270 273 275 278 280 282 283 283 283 284 285 288 289 287 285 287 292 296 299 299 300 299 299 299 300 303 308 311
268 266 264 260 258 256 257 261 267 273 277 278 277 276 273 265 258 252 246 234 217 205 200 199 202 207 209 209 210 213 216 218 221 224 228 232 235 237 239 241 242 244 246 248 249 251 252 255 258 260 262 262 262 263 265 267 270 271 272 274 277 280 281 280 279 278 279 281 282 282 280 279 282 290 297 298 298 298 297 297 297 298 301 306 308
259 260 261 259 257 256 255 255 258 263 266 268 272 274 267 255 240 222 206 195 191 193 199 206 213 218 216 212 213 217 221 223 227 230 232 234 237 238 240 242 244 244 245 246 248 251 254 257 259 260 261 262 263 264 267 269 271 271 271 272 274 275 275 274 273 271 270 271 273 273 273 275 279 287 294 297 296 296 295 294 295 296 298 302 304
250 246 244 240 238 242 246 245 245 249 255 262 263 258 250 241 226 210 202 200 200 202 209 218 223 223 219 218 221 225 227 230 232 234 235 237 238 240 242 244 245 246 247 248 250 253 255 258 260 261 261 263 265 267 270 272 273 272 271 271 270 269 268 267 267 267 267 268 270 271 272 273 276 282 288 292 293 292 292 292 293 294 295 296 298
240 238 238 234 229 234 249 258 262 268 271 265 251 241 244 243 228 214 213 217 215 210 215 224 228 226 225 226 229 232 234 236 238 238 240 241 242 244 246 247 248 250 252 253 254 256 258 260 261 262 263 264 266 268 271 272 273 273 273 272 271 270 268 267 266 267 268 270 273 275 277 277 278 280 284 286 287 289 290 290 291 291 291 292 295
237 238 241 237 230 233 244 255 265 274 277 268 247 236 241 242 227 215 218 226 228 225 226 229 230 231 233 235 237 238 239 240 241 243 245 246 248 248 250 252 254 257 258 259 259 259 261 261 262 262 263 264 266 268 270 271 273 275 277 276 273 271 268 266 264 264 267 271 275 279 282 284 284 284 283 283 284 285 286 287 288 288 287 288 292
247 250 252 250 246 247 251 258 264 269 274 276 267 253 250 246 235 222 217 218 222 227 232 233 233 235 237 237 237 238 240 242 245 248 250 252 254 256 257 259 261 262 261 260 258 258 260 261 261 262 264 266 268 269 270 271 274 277 278 277 275 271 268 267 267 269 272 275 277 280 283 285 286 285 283 282 282 283 283 284 284 284 283 285 290
257 261 262 262 261 260 260 263 264 263 262 264 264 259 256 251 240 227 222 226 231 233 234 235 233 230 227 227 231 238 243 247 250 252 254 257 261 263 264 265 264 262 260 258 257 258 260 261 261 263 265 267 270 270 268 269 273 276 276 276 275 273 271 272 274 276 277 277 278 279 280 281 281 281 281 280 281 281 282 282 281 280 280 282 286
Height
3151 3153 3154 3156 3158 3159 3161 3163 3165 3166 3168 3170 3171 3172 3174 3175 3177 3179 3180 3182 3184 3185 3187 3189 3190 3192 3193 3194 3194 3195 3195 3196 3196 3197 3197 3197 3197 3197 3197 3197 3197 3197 3197 3196 3196 3195 3195 3194 3194 3193 3193 3193 3192 3192 3192 3191 3191 3191 3191 3191 3190 3190 3189 3189 3189 3189 3187 3187 3186 3185 3184 3184 3184 3183 3182 3182 3181 3180 3179 3179 3178 3177 3177 3177 3176
3149 3150 3152 3154 3155 3157 3159 3161 3162 3164 3165 3167 3168 3170 3172 3173 3175 3176 3177 3180 3182 3183 3185 3186 3188 3189 3191 3191 3192 3192 3193 3194 3194 3194 3195 3195 3195 3195 3195 3195 3195 3195 3195 3195 3194 3194 3193 3193 3192 3191 3191 3191 3190 3190 3189 3189 3189 3188 3188 3189 3189 3188 3188 3188 3188 3187 3187 3186 3185 3184 3183 3183 3182 3181 3180 3179 3179 3178 3177 3176 3175 3175 3174 3173 3173
3147 3149 3150 3151 3153 3155 3156 3158 3159 3161 3162 3164 3166 3168 3169 3171 3172 3173 3175 3177 3179 3181 3183 3184 3185 3187 3188 3189 3189 3190 3191 3191 3191 3192 3192 3192 3193 3193 3193 3193 3193 3193 3193 3193 3192 3192 3191 3191 3190 3189 3188 3188 3188 3188 3187 3187 3186 3186 3186 3186 3186 3186 3186 3186 3186 3186 3185 3185 3184 3183 3182 3181 3181 3180 3178 3178 3177 3176 3176 3175 3174 3173 3172 3171 3170
3145 3147 3148 3149 3151 3153 3154 3155 3157 3158 3159 3161 3163 3165 3167 3169 3170 3171 3173 3175 3177 3179 3180 3181 3183 3184 3185 3186 3187 3188 3188 3188 3189 3189 3190 3190 3191 3191 3191 3191 3191 3191 3190 3190 3190 3189 3189 3189 3188 3187 3186 3186 3186 3186 3185 3185 3184 3184 3184 3184 3184 3184 3184 3184 3183 3183 3183 3183 3182 3181 3181 3180 3179 3178 3177 3176 3176 3175 3174 3173 3173 3172 3171 3170 3169
3143 3144 3146 3147 3149 3150 3151 3152 3154 3155 3157 3159 3161 3163 3165 3166 3168 3169 3171 3173 3175 3176 3178 3179 3180 3181 3183 3184 3184 3185 3186 3186 3186 3187 3187 3188 3188 3188 3188 3188 3188 3188 3187 3187 3187 3186 3186 3186 3186 3185 3184 3184 3184 3184 3183 3183 3182 3182 3182 3182 3182 3182 3181 3181 3181 3181 3181 3181 3181 3180 3179 3178 3177 3176 3175 3174 3174 3173 3172 3172 3171 3170 3170 3169 3168
3141 3142 3143 3145 3146 3147 3148 3150 3151 3153 3155 3157 3159 3161 3162 3164 3166 3167 3169 3171 3173 3174 3175 3176 3177 3179 3180 3181 3182 3182 3183 3183 3184 3184 3185 3185 3185 3185 3185 3185 3185 3185 3184 3184 3184 3184 3184 3184 3183 3182 3182 3182 3182 3182 3181 3180 3180 3180 3180 3180 3180 3179 3179 3179 3179 3179 3179 3179 3178 3178 3176 3175 3175 3174 3173 3172 3172 3171 3170 3169 3169 3168 3167 3166 3166
3138 3139 3141 3142 3143 3145 3146 3147 3149 3151 3153 3155 3157 3159 3160 3162 3164 3165 3167 3169 3170 3172 3173 3174 3175 3176 3177 3178 3179 3179 3180 3180 3181 3182 3182 3182 3182 3182 3182 3182 3181 3182 3181 3181 3181 3181 3181 3181 3180 3180 3179 3179 3179 3179 3178 3178 3178 3178 3178 3178 3177 3177 3177 3176 3176 3176 3176 3176 3176 3175 3174 3173 3173 3172 3170 3169 3168 3168 3167 3166 3166 3165 3163 3162 3162
3136 3137 3138 3140 3141 3142 3144 3145 3147 3149 3151 3153 3155 3156 3158 3160 3161 3163 3165 3167 3168 3169 3170 3172 3173 3173 3174 3175 3176 3177 3177 3177 3178 3179 3180 3180 3180 3180 3179 3179 3179 3179 3179 3178 3178 3178 3178 3178 3177 3176 3176 3176 3176 3176 3175 3175 3175 3175 3175 3175 3174 3174 3174 3174 3173 3173 3173 3173 3173 3173 3172 3171 3170 3169 3167 3166 3165 3164 3163 3161 3161 3161 3160 3158 3157
3133 3134 3135 3137 3138 3140 3142 3143 3145 3147 3149 3150 3152 3154 3155 3157 3159 3161 3162 3164 3166 3167 3168 3169 3169 3170 3171 3172 3173 3173 3174 3174 3175 3176 3177 3177 3177 3177 3177 3177 3177 3177 3176 3176 3175 3175 3175 3174 3174 3173 3173 3173 3173 3172 3172 3172 3172 3172 3172 3172 3171 3171 3171 3171 3171 3171 3170 3171 3171 3170 3169 3169 3168 3166 3165 3164 3162 3161 3160 3158 3157 3157 3155 3154 3154
3130 3131 3132 3134 3136 3138 3140 3141 3143 3145 3146 3148 3149 3151 3153 3154 3156 3158 3159 3161 3163 3164 3165 3166 3166 3167 3168 3169 3170 3170 3171 3172 3172 3173 3174 3174 3175 3175 3174 3174 3174 3174 3174 3174 3173 3172 3172 3171 3171 3170 3170 3170 3169 3169 3169 3169 3168 3169 3169 3168 3168 3168 3168 3169 3169 3168 3168 3168 3168 3168 3167 3167 3166 3164 3162 3161 3160 3158 3157 3155 3154 3153 3151 3150 3150
3126 3128 3130 3132 3134 3135 3137 3139 3141 3143 3144 3145 3147 3148 3150 3152 3153 3155 3156 3158 3160 3161 3162 3162 3163 3164 3165 3166 3167 3167 3168 3169 3169 3170 3171 3171 3172 3172 3171 3171 3171 3172 3173 3171 3169 3169 3169 3168 3168 3167 3167 3166 3166 3165 3166 3165 3165 3165 3165 3165 3165 3165 3166 3166 3166 3166 3166 3165 3165 3165 3164 3164 3163 3161 3159 3157 3156 3155 3154 3153 3151 3149 3147 3145 3144
3123 3125 3127 3128 3130 3132 3133 3135 3138 3140 3141 3143 3144 3146 3147 3149 3150 3152 3153 3155 3157 3158 3159 3159 3160 3162 3163 3163 3164 3164 3165 3165 3166 3167 3167 3168 3169 3169 3167 3166 3168 3169 3170 3168 3166 3165 3165 3165 3164 3164 3163 3163 3162 3162 3162 3162 3162 3162 3162 3162 3163 3163 3163 3163 3163 3163 3163 3162 3162 3162 3161 3160 3159 3158 3156 3154 3153 3152 3151 3150 3148 3145 3143 3141 3139
3120 3122 3124 3125 3126 3128 3130 3131 3134 3136 3138 3140 3141 3143 3144 3146 3147 3148 3150 3152 3153 3154 3155 3156 3158 3159 3159 3160 3161 3162 3162 3162 3162 3163 3164 3164 3165 3165 3164 3163 3164 3166 3166 3164 3163 3162 3162 3161 3161 3160 3160 3159 3158 3158 3158 3158 3159 3159 3159 3160 3161 3161 3160 3160 3160 3160 3159 3158 3158 3158 3158 3156 3155 3154 3152 3150 3150 3149 3147 3146 3144 3141 3139 3137 3135
3117 3118 3120 3121 3123 3124 3126 3127 3130 3132 3134 3136 3137 3139 3141 3142 3144 3145 3146 3148 3149 3151 3152 3153 3154 3156 3157 3157 3158 3158 3158 3158 3158 3159 3160 3159 3160 3161 3161 3160 3160 3162 3162 3160 3159 3159 3158 3157 3157 3157 3156 3155 3155 3154 3154 3155 3155 3156 3156 3157 3158 3158 3157 3157 3156 3156 3155 3155 3154 3154 3154 3152 3151 3150 3149 3147 3146 3145 3143 3142 3140 3137 3135 3133 3131
3113 3115 3116 3117 3119 3120 3122 3123 3126 3128 3129 3131 3133 3135 3137 3138 3140 3141 3143 3144 3146 3147 3148 3150 3151 3153 3154 3154 3155 3155 3155 3155 3155 3156 3155 3153 3154 3156 3157 3157 3157 3158 3157 3156 3155 3154 3154 3153 3153 3153 3152 3151 3151 3151 3151 3151 3152 3152 3153 3154 3155 3155 3154 3153 3153 3152 3152 3151 3151 3150 3150 3149 3147 3146 3145 3144 3142 3140 3139 3137 3135 3133 3130 3128 3126
3110 3111 3112 3114 3115 3116 3118 3119 3121 3123 3124 3126 3128 3131 3132 3134 3136 3137 3139 3141 3142 3143 3145 3146 3148 3149 3150 3151 3151 3151 3151 3151 3152 3152 3151 3149 3148 3148 3150 3152 3154 3154 3153 3152 3151 3151 3150 3149 3148 3148 3148 3147 3147 3147 3147 3148 3148 3148 3149 3150 3151 3151 3150 3150 3150 3149 3149 3148 3147 3147 3146 3145 3143 3142 3141 3140 3138 3136 3134 3132 3131 3127 3124 3123 3122
3106 3107 3109 3110 3112 3113 3114 3115 3117 3118 3120 3122 3124 3126 3128 3130 3132 3133 3135 3136 3138 3139 3141 3142 3144 3145 3146 3147 3147 3148 3148 3149 3149 3149 3147 3144 3142 3143 3145 3146 3148 3150 3149 3147 3147 3147 3146 3145 3144 3144 3143 3143 3143 3143 3143 3143 3144 3144 3145 3146 3147 3147 3147 3146 3146 3146 3145 3144 3144 3143 3142 3141 3140 3139 3138 3136 3134 3132 3130 3128 3125 3123 3120 3118 3117
3104 3105 3106 3107 3109 3110 3111 3112 3113 3114 3116 3117 3119 3121 3123 3125 3127 3129 3130 3132 3134 3136 3138 3139 3140 3142 3142 3143 3144 3145 3145 3146 3146 3145 3143 3139 3138 3141 3143 3142 3143 3144 3143 3142 3142 3142 3142 3140 3140 3139 3139 3139 3139 3139 3139 3139 3139 3140 3141 3142 3142 3143 3143 3142 3142 3141 3141 3141 3141 3140 3139 3138 3137 3136 3134 3132 3130 3128 3125 3123 3120 3118 3116 3114 3112
3101 3102 3103 3105 3106 3107 3108 3109 3110 3111 3112 3113 3115 3116 3118 3121 3123 3125 3126 3128 3130 3132 3134 3135 3136 3137 3138 3139 3141 3141 3141 3142 3142 3141 3140 3135 3133 3137 3140 3139 3139 3140 3139 3138 3138 3138 3137 3136 3135 3135 3135 3135 3134 3134 3135 3135 3136 3136 3137 3137 3137 3139 3139 3138 3137 3137 3137 3137 3137 3136 3136 3135 3134 3132 3131 3128 3126 3123 3121 3118 3116 3114 3111 3109 3108
3098 3100 3101 3102 3102 3103 3104 3105 3106 3108 3109 3110 3111 3112 3114 3116 3118 3120 3121 3123 3125 3127 3128 3130 3131 3132 3133 3135 3136 3136 3136 3138 3139 3138 3136 3132 3129 3132 3136 3137 3137 3136 3135 3135 3134 3133 3132 3132 3131 3131 3131 3131 3130 3130 3130 3131 3131 3131 3132 3132 3133 3134 3134 3133 3133 3134 3134 3134 3134 3133 3133 3132 3130 3129 3127 3125 3122 3119 3117 3114 3112 3110 3107 3106 3104
3095 3096 3097 3098 3099 3099 3100 3101 3103 3104 3105 3106 3107 3108 3109 3111 3112 3114 3116 3118 3119 3121 3123 3124 3126 3127 3128 3130 3131 3132 3132 3134 3135 3134 3133 3130 3127 3128 3131 3133 3133 3132 3130 3129 3129 3128 3128 3128 3128 3128 3128 3127 3127 3126 3126 3127 3127 3127 3128 3128 3129 3130 3130 3130 3130 3131 3131 3131 3131 3131 3130 3129 3127 3125 3123 3121 3118 3116 3113 3111 3109 3107 3104 3102 3100
3092 3093 3094 3094 3095 3096 3096 3097 3098 3099 3100 3101 3102 3103 3104 3105 3107 3109 3111 3112 3113 3115 3117 3119 3120 3121 3123 3125 3126 3127 3128 3130 3132 3130 3129 3128 3126 3125 3126 3127 3127 3126 3124 3124 3124 3124 3124 3124 3124 3124 3124 3123 3123 3123 3123 3123 3124 3124 3125 3125 3126 3126 3127 3127 3127 3128 3128 3128 3128 3127 3126 3125 3123 3122 3120 3117 3114 3112 3110 3108 3106 3104 3102 3099 3097
3087 3088 3089 3089 3090 3091 3091 3092 3093 3094 3094 3095 3096 3098 3099 3100 3102 3104 3106 3106 3107 3109 3110 3112 3113 3115 3117 3119 3121 3122 3124 3126 3127 3126 3125 3124 3124 3123 3122 3122 3122 3121 3120 3120 3121 3121 3121 3121 3121 3120 3120 3120 3120 3119 3120 3120 3120 3121 3122 3122 3123 3123 3124 3124 3124 3124 3125 3125 3125 3124 3122 3121 3119 3118 3115 3113 3110 3108 3106 3104 3102 3100 3098 3096 3094
3080 3081 3081 3083 3084 3085 3086 3087 3087 3088 3089 3090 3090 3091 3093 3094 3095 3097 3100 3101 3102 3103 3105 3106 3107 3109 3112 3114 3116 3117 3119 3121 3122 3122 3122 3121 3121 3120 3119 3118 3118 3117 3118 3118 3118 3118 3117 3117 3117 3117 3117 3117 3117 3117 3117 3117 3118 3119 3119 3120 3120 3120 3120 3121 3121 3121 3122 3121 3121 3120 3119 3117 3115 3113 3111 3108 3106 3103 3101 3099 3098 3096 3094 3092 3090
3074 3074 3074 3075 3077 3078 3079 3080 3081 3082 3083 3084 3084 3083 3085 3087 3089 3091 3093 3095 3097 3098 3099 3100 3102 3104 3106 3109 3111 3113 3114 3116 3117 3117 3117 3117 3117 3116 3115 3115 3115 3115 3115 3115 3115 3115 3115 3115 3115 3115 3115 3114 3114 3114 3114 3115 3116 3116 3117 3117 3117 3117 3117 3118 3118 3118 3118 3118 3117 3116 3115 3113 3111 3109 3107 3104 3102 3099 3097 3095 3094 3092 3090 3088 3086
3067 3067 3067 3068 3069 3070 3071 3072 3073 3074 3075 3076 3077 3076 3076 3080 3083 3084 3086 3088 3091 3092 3093 3095 3097 3099 3101 3104 3106 3108 3109 3110 3111 3112 3112 3112 3112 3112 3112 3111 3111 3112 3112 3112 3112 3112 3112 3112 3112 3112 3112 3112 3112 3112 3112 3113 3114 3114 3114 3115 3115 3115 3115 3115 3115 3115 3115 3114 3114 3113 3111 3109 3107 3105 3102 3100 3098 3095 3093 3092 3091 3089 3087 3085 3083
3060 3060 3060 3060 3061 3062 3062 3062 3063 3065 3066 3066 3068 3069 3069 3071 3075 3077 3079 3080 3083 3085 3086 3088 3091 3093 3096 3099 3101 3103 3105 3105 3106 3107 3107 3108 3108 3108 3107 3107 3108 3108 3109 3109 3109 3109 3109 3109 3109 3109 3109 3110 3110 3110 3111 3111 3112 3112 3112 3112 3112 3112 3112 3112 3112 3112 3111 3111 3110 3109 3107 3105 3103 3101 3098 3097 3094 3092 3090 3089 3087 3086 3084 3082 3080
3053 3053 3053 3053 3053 3053 3053 3053 3054 3054 3055 3056 3057 3059 3060 3062 3065 3069 3071 3073 3075 3077 3079 3082 3085 3087 3090 3094 3096 3098 3099 3101 3102 3103 3104 3104 3103 3103 3103 3104 3104 3105 3105 3105 3106 3106 3106 3107 3107 3107 3107 3108 3108 3108 3109 3109 3110 3110 3110 3110 3109 3109 3109 3109 3109 3109 3108 3108 3107 3105 3103 3101 3099 3097 3095 3093 3091 3089 3087 3085 3084 3082 3080 3078 3077
3045 3045 3045 3045 3045 3045 3045 3045 3045 3045 3045 3046 3047 3049 3052 3053 3056 3060 3063 3065 3066 3069 3072 3076 3079 3082 3086 3089 3091 3093 3095 3097 3099 3100 3100 3100 3099 3099 3099 3100 3100 3101 3101 3102 3102 3103 3103 3104 3104 3104 3105 3105 3106 3106 3106 3107 3107 3108 3107 3107 3106 3106 3106 3106 3106 3105 3105 3104 3103 3101 3100 3098 3096 3094 3092 3090 3088 3086 3084 3082 3080 3079 3077 3075 3073
3035 3035 3036 3036 3036 3036 3037 3037 3037 3036 3036 3037 3038 3041 3043 3045 3047 3050 3054 3057 3058 3062 3066 3069 3072 3075 3079 3083 3086 3088 3090 3092 3093 3094 3095 3095 3095 3096 3095 3095 3096 3097 3097 3098 3099 3099 3100 3101 3101 3102 3102 3103 3103 3104 3104 3104 3105 3105 3104 3104 3103 3103 3103 3103 3102 3101 3101 3100 3099 3098 3096 3094 3092 3091 3089 3088 3086 3084 3082 3080 3077 3075 3073 3072 3070
3026 3025 3025 3025 3026 3027 3027 3027 3027 3026 3026 3028 3029 3032 3034 3036 3038 3041 3046 3050 3053 3056 3060 3064 3067 3068 3072 3076 3079 3082 3085 3086 3088 3089 3090 3091 3091 3091 3091 3092 3092 3093 3094 3094 3095 3096 3097 3097 3098 3099 3100 3101 3101 3101 3102 3102 3102 3102 3101 3100 3100 3099 3099 3099 3098 3098 3097 3097 3096 3094 3092 3091 3089 3087 3086 3085 3083 3081 3079 3077 3075 3073 3071 3069 3067
3017 3016 3014 3013 3015 3016 3016 3016 3016 3015 3015 3017 3018 3020 3023 3026 3028 3031 3037 3044 3048 3050 3054 3059 3063 3065 3067 3070 3074 3078 3081 3082 3083 3085 3086 3086 3087 3088 3088 3088 3089 3089 3090 3091 3092 3093 3093 3094 3095 3097 3098 3098 3099 3099 3099 3099 3099 3099 3098 3097 3097 3096 3096 3095 3094 3094 3094 3093 3092 3090 3089 3087 3086 3085 3083 3082 3080 3078 3076 3074 3072 3070 3068 3067 3065
3011 3008 3004 3001 3002 3004 3004 3003 3002 3002 3004 3007 3007 3008 3010 3013 3016 3019 3025 3034 3041 3044 3047 3054 3059 3061 3064 3069 3073 3076 3078 3079 3079 3081 3082 3083 3083 3084 3084 3085 3086 3086 3087 3088 3089 3090 3090 3091 3093 3094 3095 3096 3096 3096 3097 3097 3096 3096 3095 3094 3093 3092 3092 3091 3091 3091 3090 3089 3088 3087 3085 3084 3083 3082 3080 3078 3077 3075 3073 3071 3069 3068 3066 3064 3063
3006 3004 2999 2993 2993 2995 2996 2996 2995 2994 2994 2996 2999 3002 3004 3007 3009 3010 3014 3025 3035 3038 3042 3049 3055 3059 3063 3068 3071 3073 3074 3075 3076 3078 3079 3079 3080 3080 3081 3082 3082 3083 3084 3085 3086 3087 3088 3089 3090 3092 3093 3093 3094 3094 3094 3094 3093 3093 3092 3091 3090 3089 3088 3088 3087 3087 3087 3086 3085 3084 3083 3082 3080 3079 3077 3075 3073 3072 3070 3068 3067 3065 3064 3062 3060
3002 3001 2997 2993 2993 2995 2997 2998 2997 2995 2992 2993 2998 3003 3006 3009 3011 3012 3015 3024 3032 3037 3041 3047 3054 3058 3061 3065 3067 3069 3071 3072 3073 3074 3075 3076 3076 3076 3077 3078 3079 3080 3081 3082 3083 3084 3085 3086 3088 3089 3090 3091 3091 3091 3092 3091 3090 3089 3088 3087 3086 3086 3085 3084 3084 3083 3083 3082 3082 3081 3080 3078 3077 3075 3074 3072 3070 3069 3067 3066 3064 3063 3061 3060 3058
3002 3001 2998 2996 2995 2997 2998 2998 2999 2999 2998 2999 3002 3005 3008 3012 3016 3019 3022 3027 3032 3036 3040 3046 3051 3055 3058 3061 3063 3065 3067 3068 3069 3071 3072 3072 3073 3073 3075 3076 3077 3078 3078 3079 3080 3081 3083 3084 3086 3087 3087 3088 3088 3089 3089 3088 3087 3086 3085 3084 3083 3082 3082 3081 3080 3080 3080 3079 3078 3077 3076 3075 3073 3072 3070 3069 3068 3066 3065 3063 3062 3060 3059 3057 3056
3005 3005 3004 3002 3002 3001 3001 3001 3001 3001 3002 3003 3005 3007 3010 3015 3019 3023 3026 3029 3032 3035 3040 3044 3048 3052 3055 3057 3059 3061 3062 3064 3066 3067 3068 3069 3070 3071 3072 3073 3074 3074 3075 3076 3078 3079 3081 3082 3083 3084 3085 3085 3085 3085 3085 3084 3083 3082 3082 3081 3080 3079 3078 3077 3077 3076 3076 3075 3074 3073 3072 3071 3070 3069 3067 3066 3065 3064 3062 3061 3060 3058 3057 3055 3054
3008 3008 3008 3008 3008 3007 3006 3006 3005 3006 3007 3008 3011 3013 3016 3019 3022 3025 3028 3030 3032 3036 3039 3042 3046 3049 3051 3054 3055 3057 3059 3061 3063 3064 3065 3067 3068 3068 3070 3070 3071 3072 3073 3074 3075 3077 3078 3080 3080 3081 3081 3081 3081 3081 3081 3080 3080 3079 3078 3076 3075 3074 3073 3073 3073 3072 3072 3071 3070 3070 3069 3068 3067 3066 3065 3064 3063 3061 3060 3059 3058 3056 3055 3053 3052
3011 3012 3011 3011 3010 3010 3010 3009 3009 3010 3011 3012 3015 3017 3019 3022 3024 3026 3028 3030 3032 3034 3037 3040 3043 3046 3049 3050 3052 3054 3056 3058 3059 3060 3062 3064 3066 3066 3067 3068 3069 3070 3070 3072 3073 3074 3076 3077 3077 3077 3077 3077 3077 3077 3077 3077 3076 3075 3073 3071 3070 3070 3070 3069 3069 3069 3068 3068 3067 3066 3066 3066 3065 3064 3063 3062 3061 3059 3058 3057 3056 3054 3053 3052 3051
3013 3014 3013 3013 3012 3012 3012 3012 3012 3013 3013 3015 3016 3018 3020 3022 3023 3025 3027 3029 3031 3033 3036 3039 3042 3044 3046 3048 3049 3051 3052 3054 3056 3058 3060 3062 3064 3065 3066 3066 3067 3067 3068 3069 3070 3072 3073 3073 3074 3074 3073 3073 3073 3074 3074 3073 3072 3070 3069 3068 3067 3067 3067 3067 3066 3066 3065 3064 3064 3064 3063 3063 3062 3061 3061 3060 3059 3058 3056 3055 3054 3052 3051 3050 3049
3014 3015 3014 3015 3014 3014 3014 3014 3014 3014 3015 3016 3017 3018 3020 3022 3023 3025 3027 3029 3031 3034 3036 3038 3040 3042 3044 3046 3047 3048 3049 3051 3054 3057 3059 3061 3062 3063 3064 3065 3065 3065 3066 3066 3068 3069 3069 3070 3070 3070 3070 3070 3070 3070 3070 3069 3068 3066 3066 3065 3064 3064 3064 3064 3063 3062 3062 3061 3061 3061 3061 3061 3060 3060 3059 3058 3057 3056 3054 3053 3052 3051 3049 3048 3047
3015 3015 3015 3015 3015 3016 3016 3016 3016 3016 3016 3017 3018 3019 3021 3022 3023 3025 3027 3029 3031 3033 3035 3037 3039 3040 3042 3044 3046 3047 3048 3050 3052 3054 3057 3059 3060 3061 3062 3063 3063 3063 3063 3064 3064 3065 3066 3066 3066 3066 3067 3067 3067 3066 3066 3065 3064 3064 3063 3062 3061 3061 3061 3060 3060 3059 3059 3059 3058 3059 3059 3059 3059 3058 3057 3056 3055 3053 3052 3051 3050 3049 3048 3046 3045
3015 3016 3016 3016 3016 3016 3016 3016 3016 3016 3017 3017 3018 3019 3021 3022 3023 3024 3026 3028 3030 3031 3033 3035 3037 3039 3040 3042 3044 3046 3047 3049 3050 3053 3055 3057 3058 3059 3059 3060 3060 3061 3061 3061 3061 3062 3062 3063 3063 3063 3063 3063 3063 3063 3062 3062 3061 3060 3059 3058 3058 3058 3057 3057 3057 3057 3056 3056 3056 3056 3057 3057 3056 3056 3055 3053 3052 3051 3050 3049 3048 3047 3046 3045 3044
3015 3015 3015 3015 3016 3016 3016 3016 3016 3016 3017 3017 3018 3019 3021 3022 3023 3024 3025 3027 3028 3030 3032 3034 3036 3038 3040 3041 3043 3045 3047 3048 3049 3051 3052 3054 3055 3056 3056 3057 3057 3058 3058 3058 3058 3059 3059 3059 3059 3059 3060 3060 3060 3060 3059 3058 3058 3057 3056 3055 3055 3054 3054 3054 3054 3054 3053 3053 3053 3054 3054 3054 3054 3053 3052 3051 3050 3049 3048 3047 3046 3045 3044 3043 3042
3013 3014 3014 3014 3015 3015 3015 3015 3015 3016 3016 3017 3017 3019 3020 3021 3022 3023 3024 3025 3027 3029 3031 3033 3035 3037 3039 3040 3042 3043 3045 3046 3047 3048 3049 3051 3052 3052 3053 3054 3055 3055 3055 3055 3055 3055 3055 3055 3055 3056 3056 3056 3056 3056 3056 3055 3054 3053 3052 3052 3052 3051 3052 3052 3051 3051 3051 3050 3051 3051 3052 3052 3051 3050 3049 3049 3048 3047 3046 3045 3044 3043 3042 3041 3040
3012 3012 3013 3013 3013 3014 3014 3014 3015 3015 3016 3017 3017 3018 3019 3020 3021 3022 3023 3024 3026 3028 3030 3032 3034 3035 3037 3038 3040 3041 3042 3043 3044 3045 3046 3047 3048 3049 3050 3050 3051 3051 3052 3052 3052 3052 3052 3052 3052 3052 3053 3053 3052 3052 3051 3051 3050 3050 3049 3049 3049 3049 3049 3049 3049 3048 3048 3048 3048 3049 3049 3049 3049 3048 3047 3046 3046 3045 3044 3043 3042 3041 3041 3040 3039
3011 3011 3012 3012 3012 3013 3013 3014 3014 3015 3016 3017 3018 3018 3019 3019 3021 3022 3023 3024 3025 3027 3029 3031 3033 3034 3035 3036 3037 3038 3040 3041 3041 3042 3043 3044 3045 3046 3047 3047 3047 3048 3048 3048 3048 3048 3049 3049 3049 3049 3049 3049 3048 3047 3046 3046 3046 3046 3046 3046 3046 3047 3047 3047 3046 3046 3045 3045 3046 3046 3047 3047 3046 3045 3044 3044 3043 3043 3042 3041 3040 3040 3039 3038 3037
3010 3011 3011 3011 3011 3012 3012 3013 3013 3014 3015 3016 3017 3018 3019 3020 3021 3022 3023 3024 3025 3026 3028 3030 3031 3032 3033 3034 3035 3036 3037 3038 3039 3039 3040 3041 3042 3043 3043 3043 3043 3043 3044 3044 3045 3045 3045 3045 3045 3045 3045 3044 3043 3043 3042 3042 3042 3042 3043 3043 3043 3044 3044 3044 3044 3043 3043 3043 3043 3044 3044 3044 3043 3042 3042 3041 3041 3040 3039 3039 3038 3038 3037 3036 3035
3009 3009 3010 3011 3011 3011 3012 3012 3012 3013 3014 3015 3016 3017 3018 3019 3020 3021 3022 3023 3025 3026 3027 3028 3029 3029 3030 3031 3032 3033 3034 3035 3036 3037 3037 3038 3039 3039 3039 3039 3039 3039 3040 3040 3041 3041 3041 3041 3041 3041 3040 3040 3039 3039 3039 3039 3039 3039 3039 3039 3040 3041 3041 3041 3041 3041 3041 3041 3041 3041 3041 3041 3040 3040 3039 3039 3038 3038 3037 3036 3036 3036 3035 3034 3033
3007 3008 3009 3010 3010 3010 3010 3010 3011 3011 3012 3013 3014 3015 3016 3017 3018 3019 3019 3021 3022 3023 3023 3024 3025 3026 3028 3028 3029 3031 3032 3033 3033 3034 3034 3034 3035 3035 3035 3035 3036 3036 3036 3036 3037 3037 3037 3037 3037 3037 3036 3036 3036 3036 3035 3036 3036 3036 3036 3036 3037 3038 3039 3038 3038 3038 3038 3038 3038 3038 3038 3038 3038 3037 3036 3036 3035 3035 3035 3034 3034 3033 3033 3032 3031
3006 3007 3007 3008 3008 3008 3008 3008 3009 3009 3010 3011 3013 3014 3014 3015 3016 3017 3018 3019 3020 3021 3021 3022 3022 3023 3025 3026 3027 3028 3029 3030 3030 3031 3031 3031 3031 3031 3031 3031 3032 3032 3032 3032 3033 3033 3033 3033 3033 3033 3033 3033 3032 3032 3033 3033 3033 3033 3033 3033 3034 3035 3035 3035 3034 3034 3034 3035 3035 3035 3035 3035 3035 3034 3034 3033 3033 3032 3032 3032 3031 3031 3030 3030 3029